Regional Weather Roundup
Issued by NWS

Home | Current Version | Previous Version | Graphics & Text | Print | Product List | Glossary On
Versions: 1 2 3 4 5 6 7 8 9 10 11 12 13 14 15 16 17 18 19 20 21 22 23 24 25 26 27 28 29 30 31 32 33 34 35 36 37 38 39 40 41 42 43 44 45 46 47 48 49 50
000
ASUS43 KMKX 231110
RWRWI

WISCONSIN REGIONAL WEATHER ROUNDUP
NATIONAL WEATHER SERVICE MILWAUKEE/SULLIVAN WI
500 AM CST MON JAN 23 2017

NOTE: "FAIR" INDICATES FEW OR NO CLOUDS BELOW 12,000 FEET WITH NO
SIGNIFICANT WEATHER AND/OR OBSTRUCTIONS TO VISIBILITY.

WIZ001-002-006>008-014>016-023>028-231200-
NORTHWEST WISCONSIN

CITY           SKY/WX    TMP DP  RH WIND       PRES   REMARKS
SUPERIOR ARPT  CLOUDY    35  35 100 W3        29.77F
ASHLAND        CLOUDY    34  34 100 SW3       29.76F FOG
HAYWARD        FOG       35  34  96 CALM      29.75F VSB 3/4
SIREN          FOG       34  34  99 W5        29.78S VSB 3/4 WCI  30
CUMBERLAND     CLOUDY    32  32 100 W8        29.76F FOG     WCI  25
RICE LAKE      FOG       34  34 100 W3        29.78S VSB 1/4
CHETEK         CLOUDY    34  34 100 CALM      29.77S FOG
LADYSMITH      FOG       34  34  99 W3        29.77S VSB 1/2
EAU CLAIRE     FOG       34  34 100 W7        29.77F VSB 1/2 WCI  28
MENOMONIE        N/A    N/A N/A N/A MISG        N/A
NEW RICHMOND   CLOUDY    33  33 100 W3        29.79S FOG
OSCEOLA        CLOUDY    33  33 100 W3        29.82S FOG
$$

WIZ003>005-009-010-017-018-231200-
NORTH CENTRAL WISCONSIN

CITY           SKY/WX    TMP DP  RH WIND       PRES   REMARKS
MANITOWISH WTR CLOUDY    32  32 100 CALM      29.72F
ARBOR VITAE    CLOUDY    34  33  97 CALM      29.72F FOG
WOODRUFF       CLOUDY    34  33  97 CALM      29.72F FOG
RHINELANDER    CLOUDY    34  33  96 NW3       29.72F
EAGLE RIVER    CLOUDY    32  32 100 NW5       29.72S WCI  27
LAND O LAKES   CLOUDY    33  33 100 CALM      29.74S FOG
PHILLIPS       CLOUDY    32  32 100 CALM      29.73F FOG
TOMAHAWK       CLOUDY    32  32  99 CALM      29.73F
MEDFORD        FOG       32  32 100 NW3       29.73S VSB 1/2
MERRILL        CLOUDY    33  33 100 CALM        N/A
$$

WIZ029-030-035-036-043>047-231200-
CENTRAL WISCONSIN

CITY           SKY/WX    TMP DP  RH WIND       PRES   REMARKS
WAUSAU         CLOUDY    34  33  96 NW5       29.73R WCI  30
MOSINEE        CLOUDY    32  32 100 NW5       29.74F WCI  27
MARSHFIELD     CLOUDY    33  33 100 N3        29.73S FOG
STEVENS POINT  CLOUDY    32  32 100 NW3       29.74F
WAUPACA        CLOUDY    37  36  96 CALM      29.74S FOG
WAUTOMA        CLOUDY    35  34  96 NW5       29.75S WCI  31
WISC RAPIDS    CLOUDY    34  34 100 NW5       29.76S WCI  30
CAMP DOUGLAS   FOG       36  34  93 W5        29.75F VSB 3/4 WCI  32
$$

WIZ011>013-019>022-031-037>040-048>050-231200-
NORTHEAST WISCONSIN

CITY           SKY/WX    TMP DP  RH WIND       PRES   REMARKS
ANTIGO         CLOUDY    32  32 100 NW5       29.72S WCI  28
SHAWANO        CLOUDY    37  35  92 NW5       29.73S WCI  34
OCONTO         CLOUDY    35  35  96 CALM      29.73S
STURGEON BAY   FOG       35  35 100 NW5       29.73R VSB 1/4 WCI  31
GREEN BAY      CLOUDY    37  37 100 NW5       29.73S WCI  33
MANITOWOC      FOG       36  36 100 MISG      29.73R VSB 3/4
APPLETON       NOT AVBL
CLINTONVILLE   CLOUDY    36  34  93 NW6       29.73S WCI  31
OSHKOSH        FOG       35  34  96 W7        29.73R VSB 3/4 WCI  29
$$

WIZ032>034-041-042-053>061-231200-
SOUTHWEST WISCONSIN

CITY           SKY/WX    TMP DP  RH WIND       PRES   REMARKS
LA CROSSE      CLOUDY    38  34  85 W7        29.79S WCI  33
SPARTA         FOG       33  33 100 W5        29.78S VSB 1   WCI  29
VIROQUA        CLOUDY    34  34 100 NW8       29.76S VSB 1/4 WCI  27
BOSCOBEL       CLOUDY    38  35  89 CALM      29.78F FOG
PRAIRIE DU CHI CLOUDY    35  34  94 NW3       29.79S
PLATTEVILLE    CLOUDY    36  36 100 NW8       29.76F WCI  29
$$

WIZ056-057-062-063-064-067-068-231200-
SOUTH CENTRAL WISCONSIN

CITY           SKY/WX    TMP DP  RH WIND       PRES   REMARKS
REEDSBURG      CLOUDY    35  35 100 NW5       29.75F WCI  31
BARABOO/DELLS  CLOUDY    35  34  99 NW5       29.75S FOG     WCI  30
LONE ROCK      CLOUDY    36  34  92 W6        29.77S WCI  31
MINERAL POINT  CLOUDY    36  36 100 NW8       29.75S FOG     WCI  29
MADISON        CLOUDY    35  34  96 NW6       29.76R WCI  30
MIDDLETON      CLOUDY    37  37 100 NW7       29.75S WCI  31
WATERTOWN      CLOUDY    35  35 100 NW5       29.73R FOG     WCI  31
MONROE         CLOUDY    34  34 100 NW6       29.74R FOG     WCI  29
JANESVILLE     CLOUDY    36  36 100 NW6       29.74R WCI  31
$$

WIZ051-052-058>065-066-070>072-231200-
SOUTHEAST WISCONSIN

CITY           SKY/WX    TMP DP  RH WIND       PRES   REMARKS
MILWAUKEE      CLOUDY    39  36  89 NW6       29.72R WCI  35
WAUKESHA       FOG       34  34 100 NW6       29.73S VSB 3/4 WCI  29
MILWAUKEE/TIMM CLOUDY    36  32  87 NW7       29.73S FOG     WCI  30
RACINE         CLOUDY    38  35  89 N6        29.74R WCI  33
KENOSHA        CLOUDY    37  35  92 NW7       29.72R WCI  32
FOND DU LAC    CLOUDY    36  33  89 NW8       29.73R FOG     WCI  30
SHEBOYGAN      FOG       36  35  96 NW5       29.72S VSB 1/2 WCI  32
WEST BEND      CLOUDY    34  34 100 NW5       29.72S FOG     WCI  30
JUNEAU         FOG       34  34  99 NW5       29.74S VSB 1/4 WCI  30
$$

LSZ147-162-231200-
LAKE SUPERIOR

STATION/POSITION TIME  TEMP    WIND        PRES    WAVE
                       AIR SEA DIR/SP/G            HT/PER
                 (UTC) (F)     (DEG/KT/KT) (MB)    (FT/S)
DEVILS ISLAND    1100   33     240/  7/  8 1008.4F
PORT WING        1040   35     190/  3/  4 1008.1F
SAXON HARBOR     1040   33     200/  2/  3 1007.8S
$$

LMZ867-665-643>646-231200-
LAKE MICHIGAN

STATION/POSITION TIME  TEMP    WIND        PRES    WAVE
                       AIR SEA DIR/SP/G            HT/PER
                 (UTC) (F)     (DEG/KT/KT) (MB)    (FT/S)
NORTHPORT PIER   1040   35     300/  5/  8 1006.4R
SISTER BAY       1005   33        CALM       N/A
KEWAUNEE LAKESHO 1048   36     310/  2/  4 1006.1R
SHEBOYGAN LAKESH 1100   37     310/  7/  8 1006.6R
PORT WASHINGTON  1030   38     310/  4/  6 1007.5S
KENOSHA   LAKESH 1100   38     330/  9/ 10 1006.8
$$

TC  - TEMPERATURE IN CELSIUS
VSB - VISIBILITY IN STATUTE MILES
WCI - WIND CHILL INDEX
HX  - HEAT INDEX





USA.gov is the U.S. government's official web portal to all federal, state and local government web resources and services.